contact:dominique.lefevre@mio.osupytheas.fr, maurice.libes@osupytheas.fr, didier.mallarino@osupytheas.fr
Project:EMSO http://www.emso-fr.org/EMSO-France
Depth: 2436.0 m
Title:EMSO Ligure Ouest : Data MII capteur CSTAR
DateTime,Latitude,Longitude,Instrument_Serial,Reference_Counts,Signal_Counts,Corrected_Signal_raw_counts,Calculated_Beam_c_inverse_meters,Internal_thermistor_counts
DateTime,Latitude,Longitude,Instrument_Serial,Reference_Counts,Signal_Counts,Corrected_Signal_raw_counts,Calculated_Beam_c_inverse_meters,Internal_thermistor_counts
2021-12-15T08:40:07,42.805,6.029,CST-1368DR,5099,6581,13807,0.492,551
2021-12-15T08:43:08,42.805,6.029,CST-1368DR,5097,6577,13803,0.494,551
2021-12-15T08:46:10,42.805,6.029,CST-1368DR,5095,6576,13807,0.492,551
2021-12-15T08:49:11,42.805,6.029,CST-1368DR,5094,6575,13806,0.493,551
2021-12-15T08:52:13,42.805,6.029,CST-1368DR,5094,6573,13804,0.493,551
2021-12-15T08:55:15,42.805,6.029,CST-1368DR,5093,6574,13807,0.492,551
2021-12-15T08:58:16,42.805,6.029,CST-1368DR,5093,6572,13804,0.493,551
2021-12-15T09:01:18,42.805,6.029,CST-1368DR,5092,6572,13806,0.493,551
2021-12-15T09:04:19,42.805,6.029,CST-1368DR,5091,6571,13807,0.492,551
2021-12-15T09:07:21,42.805,6.029,CST-1368DR,5091,6570,13804,0.493,551
2021-12-15T09:10:22,42.805,6.029,CST-1368DR,5091,6570,13804,0.493,551
2021-12-15T09:13:24,42.805,6.029,CST-1368DR,5090,6569,13805,0.493,551
2021-12-15T09:16:26,42.805,6.029,CST-1368DR,5090,6568,13803,0.494,551
2021-12-15T09:19:27,42.805,6.029,CST-1368DR,5089,6565,13799,0.495,551
2021-12-15T09:22:29,42.805,6.029,CST-1368DR,5089,6567,13803,0.494,551
2021-12-15T09:25:30,42.805,6.029,CST-1368DR,5088,6562,13796,0.496,551
2021-12-15T09:28:32,42.805,6.029,CST-1368DR,5088,6566,13804,0.493,551
2021-12-15T09:31:34,42.805,6.029,CST-1368DR,5088,6566,13803,0.494,551
2021-12-15T09:34:35,42.805,6.029,CST-1368DR,5087,6565,13804,0.493,551
2021-12-15T09:37:37,42.805,6.029,CST-1368DR,5087,6565,13804,0.493,551
2021-12-15T09:40:38,42.805,6.029,CST-1368DR,5087,6565,13804,0.493,551
2021-12-15T09:43:40,42.805,6.029,CST-1368DR,5087,6564,13801,0.494,551
2021-12-15T09:46:41,42.805,6.029,CST-1368DR,5086,6563,13803,0.494,551
2021-12-15T09:49:43,42.805,6.029,CST-1368DR,5086,6564,13804,0.493,551
2021-12-15T09:52:45,42.805,6.029,CST-1368DR,5086,6563,13803,0.494,551
2021-12-15T09:55:46,42.805,6.029,CST-1368DR,5085,6563,13806,0.493,551
2021-12-15T09:58:48,42.805,6.029,CST-1368DR,5085,6563,13804,0.493,551
2021-12-15T10:01:49,42.805,6.029,CST-1368DR,5085,6563,13804,0.493,551
2021-12-15T10:04:51,42.805,6.029,CST-1368DR,5085,6562,13804,0.493,551
2021-12-15T10:07:53,42.805,6.029,CST-1368DR,5084,6562,13805,0.493,551
2021-12-15T10:10:54,42.805,6.029,CST-1368DR,5084,6561,13804,0.493,551
2021-12-15T10:13:56,42.805,6.029,CST-1368DR,5084,6560,13801,0.494,551
2021-12-15T10:16:57,42.805,6.029,CST-1368DR,5084,6560,13801,0.494,551
2021-12-15T10:19:59,42.805,6.029,CST-1368DR,5083,6559,13803,0.494,551
2021-12-15T10:23:00,42.805,6.029,CST-1368DR,5083,6559,13803,0.494,551
2021-12-15T10:26:02,42.805,6.029,CST-1368DR,5083,6560,13803,0.494,551
2021-12-15T10:29:04,42.805,6.029,CST-1368DR,5083,6560,13803,0.494,551
2021-12-15T10:32:05,42.805,6.029,CST-1368DR,5082,6559,13804,0.493,551
2021-12-15T10:35:07,42.805,6.029,CST-1368DR,5082,6559,13805,0.493,551
2021-12-15T10:38:08,42.805,6.029,CST-1368DR,5082,6558,13803,0.494,551
2021-12-15T10:41:10,42.805,6.029,CST-1368DR,5082,6557,13800,0.495,551
2021-12-15T10:44:11,42.805,6.029,CST-1368DR,5082,6556,13798,0.495,551
2021-12-15T10:47:13,42.805,6.029,CST-1368DR,5081,6556,13800,0.495,551
2021-12-15T10:50:15,42.805,6.029,CST-1368DR,5081,6556,13800,0.495,551
2021-12-15T10:53:16,42.805,6.029,CST-1368DR,5081,6556,13801,0.494,551
2021-12-15T10:56:18,42.805,6.029,CST-1368DR,5081,6556,13801,0.494,551
2021-12-15T10:59:19,42.805,6.029,CST-1368DR,5080,6554,13799,0.495,551
2021-12-15T11:02:21,42.805,6.029,CST-1368DR,5080,6555,13800,0.495,551
2021-12-15T11:05:23,42.805,6.029,CST-1368DR,5080,6555,13801,0.494,551
2021-12-15T11:08:24,42.805,6.029,CST-1368DR,5080,6554,13799,0.495,551
2021-12-15T11:11:26,42.805,6.029,CST-1368DR,5080,6553,13797,0.495,551
2021-12-15T11:14:27,42.805,6.029,CST-1368DR,5080,6553,13798,0.495,551
2021-12-15T11:17:29,42.805,6.029,CST-1368DR,5079,6553,13800,0.495,551
2021-12-15T11:20:30,42.805,6.029,CST-1368DR,5079,6553,13800,0.495,551
2021-12-15T11:23:32,42.805,6.029,CST-1368DR,5079,6554,13802,0.494,551
2021-12-15T11:26:34,42.805,6.029,CST-1368DR,5079,6553,13799,0.495,551
2021-12-15T11:29:35,42.805,6.029,CST-1368DR,5079,6553,13800,0.495,551
2021-12-15T11:32:37,42.805,6.029,CST-1368DR,5078,6553,13801,0.494,551
2021-12-15T11:35:38,42.805,6.029,CST-1368DR,5078,6549,13794,0.496,551
2021-12-15T11:38:40,42.805,6.029,CST-1368DR,5078,6553,13801,0.494,551
2021-12-15T11:41:42,42.805,6.029,CST-1368DR,5078,6552,13799,0.495,551
2021-12-15T11:44:43,42.805,6.029,CST-1368DR,5078,6552,13800,0.495,551
2021-12-15T11:47:45,42.805,6.029,CST-1368DR,5078,6552,13799,0.495,551
2021-12-15T11:50:46,42.805,6.029,CST-1368DR,5077,6552,13802,0.494,551
2021-12-15T11:53:48,42.805,6.029,CST-1368DR,5077,6551,13800,0.495,551
2021-12-15T11:56:49,42.805,6.029,CST-1368DR,5077,6551,13800,0.495,551
2021-12-15T11:59:51,42.805,6.029,CST-1368DR,5077,6551,13800,0.495,551
2021-12-15T12:02:53,42.805,6.029,CST-1368DR,5077,6551,13800,0.495,551
2021-12-15T12:05:54,42.805,6.029,CST-1368DR,5077,6550,13798,0.495,551
2021-12-15T12:08:56,42.805,6.029,CST-1368DR,5077,6550,13798,0.495,551
2021-12-15T12:11:57,42.805,6.029,CST-1368DR,5076,6550,13800,0.495,551
2021-12-15T12:14:59,42.805,6.029,CST-1368DR,5076,6549,13799,0.495,551
2021-12-15T12:18:01,42.805,6.029,CST-1368DR,5076,6549,13800,0.495,551
2021-12-15T12:21:02,42.805,6.029,CST-1368DR,5076,6549,13798,0.495,551
2021-12-15T12:24:04,42.805,6.029,CST-1368DR,5076,6549,13799,0.495,551
2021-12-15T12:27:05,42.805,6.029,CST-1368DR,5076,6548,13797,0.495,551
2021-12-15T12:30:07,42.805,6.029,CST-1368DR,5075,6549,13802,0.494,551
2021-12-15T12:33:08,42.805,6.029,CST-1368DR,5075,6548,13800,0.495,551
2021-12-15T12:36:10,42.805,6.029,CST-1368DR,5075,6548,13799,0.495,551
2021-12-15T12:39:12,42.805,6.029,CST-1368DR,5075,6548,13800,0.495,551
2021-12-15T12:42:13,42.805,6.029,CST-1368DR,5075,6548,13799,0.495,551
2021-12-15T12:45:15,42.805,6.029,CST-1368DR,5075,6547,13798,0.495,551
2021-12-15T12:48:16,42.805,6.029,CST-1368DR,5074,6547,13801,0.494,551
2021-12-15T12:51:18,42.805,6.029,CST-1368DR,5074,6547,13801,0.494,551
2021-12-15T12:54:19,42.805,6.029,CST-1368DR,5074,6547,13799,0.495,551
2021-12-15T12:57:21,42.805,6.029,CST-1368DR,5074,6547,13801,0.494,551
2021-12-15T13:00:23,42.805,6.029,CST-1368DR,5074,6547,13800,0.495,551
2021-12-15T13:03:24,42.805,6.029,CST-1368DR,5074,6547,13799,0.495,551
2021-12-15T13:06:26,42.805,6.029,CST-1368DR,5074,6546,13798,0.495,551
2021-12-15T13:09:27,42.805,6.029,CST-1368DR,5074,6546,13798,0.495,551
2021-12-15T13:12:29,42.805,6.029,CST-1368DR,5074,6546,13797,0.495,551
2021-12-15T13:15:31,42.805,6.029,CST-1368DR,5073,6546,13800,0.495,551
2021-12-15T13:18:32,42.805,6.029,CST-1368DR,5073,6545,13798,0.495,551
2021-12-15T13:21:34,42.805,6.029,CST-1368DR,5073,6545,13798,0.495,551
2021-12-15T13:24:35,42.805,6.029,CST-1368DR,5073,6545,13797,0.495,551
2021-12-15T13:27:37,42.805,6.029,CST-1368DR,5073,6544,13797,0.495,551
2021-12-15T13:30:38,42.805,6.029,CST-1368DR,5073,6545,13797,0.495,551
2021-12-15T13:33:40,42.805,6.029,CST-1368DR,5073,6545,13799,0.495,551
2021-12-15T13:36:42,42.805,6.029,CST-1368DR,5073,6545,13798,0.495,551
2021-12-15T13:39:43,42.805,6.029,CST-1368DR,5072,6545,13800,0.495,551
2021-12-15T13:42:45,42.805,6.029,CST-1368DR,5072,6544,13799,0.495,551
2021-12-15T13:45:46,42.805,6.029,CST-1368DR,5072,6545,13800,0.495,551
2021-12-15T13:48:48,42.805,6.029,CST-1368DR,5072,6542,13795,0.496,551
2021-12-15T13:51:50,42.805,6.029,CST-1368DR,5072,6545,13801,0.494,551
2021-12-15T13:54:51,42.805,6.029,CST-1368DR,5072,6544,13799,0.495,551
2021-12-15T13:57:53,42.805,6.029,CST-1368DR,5072,6543,13796,0.496,551
2021-12-15T14:00:54,42.805,6.029,CST-1368DR,5072,6544,13798,0.495,551
2021-12-15T14:03:56,42.805,6.029,CST-1368DR,5071,6544,13801,0.494,551
2021-12-15T14:06:57,42.805,6.029,CST-1368DR,5071,6543,13799,0.495,551
2021-12-15T14:09:59,42.805,6.029,CST-1368DR,5071,6542,13797,0.495,551
2021-12-15T14:13:01,42.805,6.029,CST-1368DR,5071,6543,13799,0.495,551
2021-12-15T14:16:02,42.805,6.029,CST-1368DR,5071,6543,13798,0.495,551
2021-12-15T14:19:04,42.805,6.029,CST-1368DR,5071,6542,13797,0.495,551
2021-12-15T14:22:05,42.805,6.029,CST-1368DR,5071,6543,13799,0.495,551
2021-12-15T14:25:07,42.805,6.029,CST-1368DR,5071,6543,13798,0.495,551
2021-12-15T14:28:08,42.805,6.029,CST-1368DR,5070,6542,13800,0.495,551
2021-12-15T14:31:10,42.805,6.029,CST-1368DR,5070,6542,13799,0.495,551
2021-12-15T14:34:12,42.805,6.029,CST-1368DR,5070,6542,13799,0.495,551
2021-12-15T14:37:13,42.805,6.029,CST-1368DR,5070,6542,13799,0.495,551
2021-12-15T14:40:15,42.805,6.029,CST-1368DR,5070,6542,13799,0.495,551
2021-12-15T14:43:16,42.805,6.029,CST-1368DR,5070,6541,13797,0.495,551
2021-12-15T14:46:18,42.805,6.029,CST-1368DR,5070,6542,13800,0.495,551
2021-12-15T14:49:20,42.805,6.029,CST-1368DR,5070,6541,13797,0.495,551
2021-12-15T14:52:21,42.805,6.029,CST-1368DR,5070,6541,13798,0.495,551
2021-12-15T14:55:23,42.805,6.029,CST-1368DR,5069,6540,13799,0.495,551
2021-12-15T14:58:24,42.805,6.029,CST-1368DR,5069,6541,13799,0.495,551
2021-12-15T15:01:26,42.805,6.029,CST-1368DR,5069,6539,13796,0.496,551
2021-12-15T15:04:27,42.805,6.029,CST-1368DR,5069,6541,13800,0.495,551
2021-12-15T15:07:29,42.805,6.029,CST-1368DR,5069,6541,13799,0.495,551
2021-12-15T15:10:31,42.805,6.029,CST-1368DR,5069,6541,13800,0.495,551
2021-12-15T15:13:32,42.805,6.029,CST-1368DR,5069,6541,13799,0.495,551
2021-12-15T15:16:34,42.805,6.029,CST-1368DR,5069,6540,13799,0.495,551
2021-12-15T15:19:35,42.805,6.029,CST-1368DR,5069,6539,13796,0.496,551
2021-12-15T15:22:37,42.805,6.029,CST-1368DR,5069,6539,13797,0.495,551
2021-12-15T15:25:38,42.805,6.029,CST-1368DR,5068,6540,13800,0.495,551
2021-12-15T15:28:40,42.805,6.029,CST-1368DR,5068,6539,13799,0.495,551
2021-12-15T15:31:42,42.805,6.029,CST-1368DR,5068,6539,13798,0.495,551
2021-12-15T15:34:43,42.805,6.029,CST-1368DR,5068,6539,13798,0.495,551
2021-12-15T15:37:45,42.805,6.029,CST-1368DR,5068,6539,13799,0.495,551
2021-12-15T15:40:46,42.805,6.029,CST-1368DR,5068,6538,13797,0.495,551
2021-12-15T15:43:48,42.805,6.029,CST-1368DR,5068,6538,13797,0.495,551
2021-12-15T15:46:50,42.805,6.029,CST-1368DR,5068,6538,13797,0.495,551
2021-12-15T15:49:51,42.805,6.029,CST-1368DR,5068,6539,13799,0.495,551
2021-12-15T15:52:53,42.805,6.029,CST-1368DR,5068,6538,13797,0.495,551
2021-12-15T15:55:54,42.805,6.029,CST-1368DR,5068,6538,13796,0.496,551
2021-12-15T15:58:56,42.805,6.029,CST-1368DR,5067,6538,13800,0.495,551
2021-12-15T16:01:57,42.805,6.029,CST-1368DR,5067,6538,13799,0.495,551
2021-12-15T16:04:59,42.805,6.029,CST-1368DR,5067,6538,13800,0.495,551
2021-12-15T16:08:01,42.805,6.029,CST-1368DR,5067,6538,13799,0.495,551
2021-12-15T16:11:02,42.805,6.029,CST-1368DR,5067,6537,13796,0.496,551
2021-12-15T16:14:04,42.805,6.029,CST-1368DR,5067,6537,13796,0.496,551
2021-12-15T16:17:05,42.805,6.029,CST-1368DR,5067,6538,13799,0.495,551
2021-12-15T16:20:07,42.805,6.029,CST-1368DR,5067,6538,13799,0.495,551
2021-12-15T16:23:09,42.805,6.029,CST-1368DR,5067,6538,13798,0.495,551
2021-12-15T16:26:10,42.805,6.029,CST-1368DR,5067,6537,13798,0.495,551
2021-12-15T16:29:12,42.805,6.029,CST-1368DR,5067,6537,13798,0.495,551
2021-12-15T16:32:13,42.805,6.029,CST-1368DR,5067,6537,13798,0.495,551
2021-12-15T16:35:15,42.805,6.029,CST-1368DR,5067,6537,13797,0.495,551
2021-12-15T16:38:16,42.805,6.029,CST-1368DR,5066,6537,13799,0.495,551
2021-12-15T16:41:18,42.805,6.029,CST-1368DR,5066,6537,13800,0.495,551
2021-12-15T16:44:20,42.805,6.029,CST-1368DR,5066,6537,13799,0.495,551
2021-12-15T16:47:21,42.805,6.029,CST-1368DR,5066,6537,13800,0.495,551
2021-12-15T16:50:23,42.805,6.029,CST-1368DR,5066,6537,13799,0.495,551
2021-12-15T16:53:24,42.805,6.029,CST-1368DR,5066,6536,13798,0.495,551
2021-12-15T16:56:26,42.805,6.029,CST-1368DR,5066,6535,13796,0.496,551
2021-12-15T16:59:28,42.805,6.029,CST-1368DR,5066,6536,13798,0.495,551
2021-12-15T17:02:29,42.805,6.029,CST-1368DR,5066,6536,13797,0.495,551
2021-12-15T17:05:31,42.805,6.029,CST-1368DR,5066,6536,13797,0.495,551
2021-12-15T17:08:32,42.805,6.029,CST-1368DR,5066,6536,13797,0.495,550
2021-12-15T17:11:34,42.805,6.029,CST-1368DR,5065,6536,13800,0.495,551
2021-12-15T17:14:35,42.805,6.029,CST-1368DR,5065,6536,13799,0.495,551
2021-12-15T17:17:37,42.805,6.029,CST-1368DR,5065,6535,13798,0.495,551
2021-12-15T17:20:39,42.805,6.029,CST-1368DR,5065,6535,13799,0.495,551
2021-12-15T17:23:40,42.805,6.029,CST-1368DR,5065,6536,13800,0.495,551
2021-12-15T17:26:42,42.805,6.029,CST-1368DR,5065,6535,13798,0.495,551
2021-12-15T17:29:43,42.805,6.029,CST-1368DR,5065,6534,13797,0.495,551
2021-12-15T17:32:45,42.805,6.029,CST-1368DR,5065,6535,13799,0.495,551
2021-12-15T17:35:46,42.805,6.029,CST-1368DR,5065,6535,13797,0.495,551
2021-12-15T17:38:48,42.805,6.029,CST-1368DR,5065,6534,13797,0.495,551
2021-12-15T17:41:50,42.805,6.029,CST-1368DR,5065,6535,13798,0.495,551
2021-12-15T17:44:51,42.805,6.029,CST-1368DR,5065,6535,13798,0.495,551
2021-12-15T17:47:53,42.805,6.029,CST-1368DR,5064,6534,13798,0.495,551
2021-12-15T17:50:54,42.805,6.029,CST-1368DR,5064,6535,13800,0.495,551
2021-12-15T17:53:56,42.805,6.029,CST-1368DR,5064,6534,13799,0.495,551
2021-12-15T17:56:58,42.805,6.029,CST-1368DR,5064,6535,13800,0.495,550
2021-12-15T17:59:59,42.805,6.029,CST-1368DR,5064,6534,13799,0.495,551
2021-12-15T18:03:01,42.805,6.029,CST-1368DR,5064,6534,13799,0.495,551
2021-12-15T18:06:02,42.805,6.029,CST-1368DR,5064,6534,13798,0.495,551
2021-12-15T18:09:04,42.805,6.029,CST-1368DR,5064,6534,13798,0.495,551
2021-12-15T18:12:05,42.805,6.029,CST-1368DR,5064,6533,13796,0.496,551
2021-12-15T18:15:07,42.805,6.029,CST-1368DR,5064,6533,13796,0.496,551
2021-12-15T18:18:09,42.805,6.029,CST-1368DR,5064,6533,13796,0.496,551
2021-12-15T18:21:10,42.805,6.029,CST-1368DR,5064,6534,13798,0.495,551
2021-12-15T18:24:12,42.805,6.029,CST-1368DR,5064,6532,13794,0.496,551
2021-12-15T18:27:13,42.805,6.029,CST-1368DR,5063,6533,13799,0.495,551
2021-12-15T18:30:15,42.805,6.029,CST-1368DR,5063,6533,13798,0.495,551
2021-12-15T18:33:17,42.805,6.029,CST-1368DR,5063,6532,13797,0.495,551
2021-12-15T18:36:18,42.805,6.029,CST-1368DR,5063,6532,13796,0.496,551
2021-12-15T18:39:20,42.805,6.029,CST-1368DR,5063,6532,13797,0.495,551
2021-12-15T18:42:21,42.805,6.029,CST-1368DR,5063,6532,13797,0.495,551
2021-12-15T18:45:23,42.805,6.029,CST-1368DR,5063,6533,13799,0.495,551
2021-12-15T18:48:24,42.805,6.029,CST-1368DR,5063,6532,13797,0.495,551
2021-12-15T18:51:26,42.805,6.029,CST-1368DR,5063,6532,13797,0.495,551
2021-12-15T18:54:28,42.805,6.029,CST-1368DR,5063,6531,13795,0.496,551
2021-12-15T18:57:29,42.805,6.029,CST-1368DR,5063,6532,13796,0.496,551
2021-12-15T19:00:31,42.805,6.029,CST-1368DR,5063,6531,13794,0.496,551
2021-12-15T19:03:32,42.805,6.029,CST-1368DR,5063,6528,13789,0.498,551
2021-12-15T19:06:34,42.805,6.029,CST-1368DR,5063,6533,13798,0.495,551
2021-12-15T19:09:35,42.805,6.029,CST-1368DR,5062,6532,13799,0.495,551
2021-12-15T19:12:37,42.805,6.029,CST-1368DR,5062,6532,13800,0.495,551
2021-12-15T19:15:39,42.805,6.029,CST-1368DR,5062,6531,13797,0.495,551
2021-12-15T19:18:40,42.805,6.029,CST-1368DR,5062,6530,13794,0.496,551
2021-12-15T19:21:42,42.805,6.029,CST-1368DR,5062,6529,13794,0.496,551
2021-12-15T19:24:43,42.805,6.029,CST-1368DR,5062,6532,13799,0.495,551
2021-12-15T19:27:45,42.805,6.029,CST-1368DR,5062,6531,13797,0.495,551
2021-12-15T19:30:47,42.805,6.029,CST-1368DR,5062,6530,13795,0.496,551
2021-12-15T19:33:48,42.805,6.029,CST-1368DR,5062,6531,13797,0.495,551
2021-12-15T19:36:50,42.805,6.029,CST-1368DR,5062,6531,13796,0.496,551
2021-12-15T19:39:51,42.805,6.029,CST-1368DR,5062,6531,13797,0.495,551
2021-12-15T19:42:53,42.805,6.029,CST-1368DR,5062,6531,13797,0.495,551
2021-12-15T19:45:54,42.805,6.029,CST-1368DR,5062,6531,13797,0.495,551
2021-12-15T19:48:56,42.805,6.029,CST-1368DR,5062,6531,13797,0.495,551
2021-12-15T19:51:58,42.805,6.029,CST-1368DR,5062,6531,13796,0.496,551
2021-12-15T19:54:59,42.805,6.029,CST-1368DR,5061,6531,13799,0.495,551
2021-12-15T19:58:01,42.805,6.029,CST-1368DR,5061,6530,13798,0.495,550
2021-12-15T20:01:02,42.805,6.029,CST-1368DR,5061,6530,13797,0.495,551
2021-12-15T20:04:04,42.805,6.029,CST-1368DR,5061,6531,13800,0.495,551
2021-12-15T20:07:06,42.805,6.029,CST-1368DR,5061,6531,13799,0.495,551
2021-12-15T20:10:07,42.805,6.029,CST-1368DR,5061,6530,13798,0.495,551
2021-12-15T20:13:09,42.805,6.029,CST-1368DR,5061,6529,13796,0.496,551
2021-12-15T20:16:10,42.805,6.029,CST-1368DR,5061,6530,13798,0.495,551
2021-12-15T20:19:12,42.805,6.029,CST-1368DR,5061,6529,13796,0.496,551
2021-12-15T20:22:13,42.805,6.029,CST-1368DR,5061,6530,13797,0.495,551
2021-12-15T20:25:15,42.805,6.029,CST-1368DR,5061,6529,13796,0.496,551
2021-12-15T20:28:17,42.805,6.029,CST-1368DR,5061,6530,13797,0.495,551
2021-12-15T20:31:18,42.805,6.029,CST-1368DR,5061,6530,13797,0.495,551
2021-12-15T20:34:20,42.805,6.029,CST-1368DR,5061,6529,13795,0.496,551
2021-12-15T20:37:21,42.805,6.029,CST-1368DR,5061,6529,13796,0.496,551
2021-12-15T20:40:23,42.805,6.029,CST-1368DR,5061,6529,13796,0.496,551
2021-12-15T20:43:24,42.805,6.029,CST-1368DR,5060,6529,13798,0.495,551
2021-12-15T20:46:26,42.805,6.029,CST-1368DR,5060,6529,13798,0.495,551
2021-12-15T20:49:28,42.805,6.029,CST-1368DR,5060,6529,13799,0.495,551
2021-12-15T20:52:29,42.805,6.029,CST-1368DR,5060,6529,13798,0.495,551
2021-12-15T20:55:31,42.805,6.029,CST-1368DR,5060,6529,13798,0.495,551
2021-12-15T20:58:32,42.805,6.029,CST-1368DR,5060,6529,13798,0.495,551
2021-12-15T21:01:34,42.805,6.029,CST-1368DR,5060,6529,13797,0.495,551
2021-12-15T21:04:36,42.805,6.029,CST-1368DR,5060,6528,13797,0.495,551
2021-12-15T21:07:37,42.805,6.029,CST-1368DR,5060,6527,13795,0.496,551
2021-12-15T21:10:39,42.805,6.029,CST-1368DR,5060,6528,13797,0.495,551
2021-12-15T21:13:40,42.805,6.029,CST-1368DR,5060,6528,13797,0.495,551
2021-12-15T21:16:42,42.805,6.029,CST-1368DR,5060,6529,13797,0.495,551
2021-12-15T21:19:43,42.805,6.029,CST-1368DR,5060,6528,13795,0.496,551
2021-12-15T21:22:45,42.805,6.029,CST-1368DR,5060,6528,13797,0.495,551
2021-12-15T21:25:47,42.805,6.029,CST-1368DR,5060,6528,13796,0.496,551
2021-12-15T21:28:48,42.805,6.029,CST-1368DR,5060,6528,13796,0.496,551
2021-12-15T21:31:50,42.805,6.029,CST-1368DR,5060,6528,13797,0.495,551
2021-12-15T21:34:51,42.805,6.029,CST-1368DR,5060,6528,13796,0.496,551
2021-12-15T21:37:53,42.805,6.029,CST-1368DR,5060,6528,13796,0.496,551
2021-12-15T21:40:55,42.805,6.029,CST-1368DR,5059,6527,13797,0.495,551
2021-12-15T21:43:56,42.805,6.029,CST-1368DR,5059,6528,13799,0.495,551
2021-12-15T21:46:58,42.805,6.029,CST-1368DR,5059,6528,13798,0.495,551
2021-12-15T21:49:59,42.805,6.029,CST-1368DR,5059,6528,13799,0.495,551
2021-12-15T21:53:01,42.805,6.029,CST-1368DR,5059,6528,13798,0.495,551
2021-12-15T21:56:02,42.805,6.029,CST-1368DR,5059,6528,13798,0.495,551
2021-12-15T21:59:04,42.805,6.029,CST-1368DR,5059,6528,13798,0.495,550
2021-12-15T22:02:06,42.805,6.029,CST-1368DR,5059,6528,13799,0.495,551
2021-12-15T22:05:07,42.805,6.029,CST-1368DR,5059,6528,13798,0.495,551
2021-12-15T22:08:09,42.805,6.029,CST-1368DR,5059,6527,13797,0.495,551
2021-12-15T22:11:10,42.805,6.029,CST-1368DR,5059,6528,13798,0.495,551
2021-12-15T22:14:12,42.805,6.029,CST-1368DR,5059,6527,13797,0.495,551
2021-12-15T22:17:13,42.805,6.029,CST-1368DR,5059,6527,13797,0.495,551
2021-12-15T22:20:15,42.805,6.029,CST-1368DR,5059,6527,13797,0.495,551
2021-12-15T22:23:17,42.805,6.029,CST-1368DR,5059,6525,13791,0.497,551
2021-12-15T22:26:18,42.805,6.029,CST-1368DR,5059,6526,13795,0.496,551
2021-12-15T22:29:20,42.805,6.029,CST-1368DR,5059,6527,13797,0.495,551
2021-12-15T22:32:21,42.805,6.029,CST-1368DR,5059,6526,13795,0.496,551
2021-12-15T22:35:23,42.805,6.029,CST-1368DR,5059,6525,13793,0.497,551
2021-12-15T22:38:25,42.805,6.029,CST-1368DR,5058,6526,13796,0.496,551
2021-12-15T22:41:26,42.805,6.029,CST-1368DR,5058,6527,13799,0.495,551
2021-12-15T22:44:28,42.805,6.029,CST-1368DR,5058,6526,13797,0.495,551
2021-12-15T22:47:29,42.805,6.029,CST-1368DR,5058,6521,13786,0.499,551
2021-12-15T22:50:31,42.805,6.029,CST-1368DR,5058,6526,13796,0.496,551
2021-12-15T22:53:32,42.805,6.029,CST-1368DR,5058,6525,13795,0.496,551
2021-12-15T22:56:34,42.805,6.029,CST-1368DR,5058,6526,13798,0.495,551
2021-12-15T22:59:36,42.805,6.029,CST-1368DR,5058,6526,13797,0.495,551
2021-12-15T23:02:37,42.805,6.029,CST-1368DR,5058,6526,13797,0.495,551
2021-12-15T23:05:39,42.805,6.029,CST-1368DR,5058,6526,13796,0.496,551
2021-12-15T23:08:40,42.805,6.029,CST-1368DR,5058,6526,13797,0.495,551
2021-12-15T23:11:42,42.805,6.029,CST-1368DR,5058,6526,13798,0.495,551
2021-12-15T23:14:44,42.805,6.029,CST-1368DR,5058,6526,13796,0.496,551
2021-12-15T23:17:45,42.805,6.029,CST-1368DR,5058,6526,13796,0.496,551
2021-12-15T23:20:47,42.805,6.029,CST-1368DR,5058,6526,13796,0.496,551
2021-12-15T23:23:48,42.805,6.029,CST-1368DR,5058,6525,13795,0.496,551
2021-12-15T23:26:50,42.805,6.029,CST-1368DR,5058,6525,13796,0.496,551
2021-12-15T23:29:51,42.805,6.029,CST-1368DR,5058,6525,13795,0.496,551
2021-12-15T23:32:53,42.805,6.029,CST-1368DR,5058,6526,13797,0.495,551
2021-12-15T23:35:55,42.805,6.029,CST-1368DR,5058,6525,13795,0.496,551
2021-12-15T23:38:56,42.805,6.029,CST-1368DR,5058,6525,13796,0.496,551
2021-12-15T23:41:58,42.805,6.029,CST-1368DR,5058,6525,13795,0.496,551
2021-12-15T23:44:59,42.805,6.029,CST-1368DR,5057,6525,13797,0.495,551
2021-12-15T23:48:01,42.805,6.029,CST-1368DR,5057,6525,13798,0.495,551
2021-12-15T23:51:03,42.805,6.029,CST-1368DR,5057,6525,13798,0.495,551
2021-12-15T23:54:04,42.805,6.029,CST-1368DR,5057,6525,13797,0.495,551
2021-12-15T23:57:06,42.805,6.029,CST-1368DR,5057,6524,13796,0.496,551
